Current weather by "City, St" or "zip code"  
 

Current Conditions: Hutchinson, Hutchinson Municipal Airport, KS

Overcast


40.0 F

Last Updated on Oct 24 2020, 7:52 pm CDT
Humidity: 63%
Wind Speed: E 8.1 mph
Barometer 30.06 in
Dewpoint: 28.0 F
Visibility: 10.00 mi
Precip: --
Heat Index: NA
Wind Chill: 35 F
Current conditions at:

Hutchinson, Hutchinson Municipal Airport, KS (KHUT)

Lat: 38.06806 Lon: 97.86056

Local Radar Image active severe weather and emergency alerts image image weather storm and storm spotter reports image weather observation monitoring service image
Local
Radar
Active
Alerts
Storm Reports Obs
Monitoring

Sign-up For Email & Text Message Weather Alert Notification Services



Advertise Here

Observation History for Hutchinson, Hutchinson Municipal Airport, KS


Time Wind
(mph)
Vis
(mi)
Weather Precip (in) Temperature (F) Relative
Humidity
Wind
Chill
(F)
Heat
Index
(F)
Pressure
Air Dwpt altimeter
(in)
sea level
(mb)
Rmks
7:52 pm CDT E 8.1 10.00 Overcast -- 40.0 28.0 63% 35 NA 30.06 1018.1
6:52 pm CDT E 9.2 10.00 Overcast -- 41.0 28.0 60% 35 NA 30.05 1017.8
5:52 pm CDT E 10.4 10.00 Partly Cloudy -- 41.0 27.0 57% 35 NA 30.03 1017.1
4:52 pm CDT E 12.7 10.00 Partly Cloudy -- 42.0 27.0 55% 35 NA 30.03 1016.8
3:52 pm CDT SE 11.5 10.00 Mostly Cloudy -- 41.0 27.0 57% 34 NA 30.04 1017.3
2:52 pm CDT E 9.2 10.00 Overcast -- 40.0 27.0 60% 34 NA 30.06 1018.1
1:52 pm CDT SE 10.4 G 18.4 10.00 Overcast -- 40.0 27.0 60% 33 NA 30.08 1018.9
12:52 pm CDT SE 10.4 10.00 Overcast -- 38.0 27.0 65% 31 NA 30.13 1020.7
11:52 am CDT SE 8.1 G 16.1 10.00 Overcast -- 37.0 27.0 67% 31 NA 30.17 1022.0
10:52 am CDT SE 8.1 10.00 Overcast -- 36.0 26.1 67% 30 NA 30.20 1023.0
9:52 am CDT SE 4.6 10.00 Overcast -- 35.0 26.1 70% 31 NA 30.22 1023.6
8:52 am CDT E 8.1 10.00 Overcast -- 35.0 26.1 70% 28 NA 30.22 1023.6
7:52 am CDT E 6.9 10.00 Overcast -- 35.0 26.1 70% 29 NA 30.22 1023.7
6:52 am CDT E 5.8 10.00 Overcast -- 35.0 25.0 67% 30 NA 30.24 1024.1
5:52 am CDT E 6.9 10.00 Overcast -- 35.0 25.0 67% 29 NA 30.24 1024.3
4:52 am CDT E 8.1 10.00 Overcast -- 35.0 25.0 67% 28 NA 30.27 1024.9
3:52 am CDT E 3.5 10.00 Overcast -- 35.0 25.0 67% NA NA 30.29 1025.8
2:52 am CDT E 9.2 10.00 Overcast -- 35.0 25.0 67% 28 NA 30.31 1026.4
1:52 am CDT E 8.1 10.00 Overcast -- 35.0 25.0 67% 28 NA 30.33 1027.2
12:52 am CDT NE 5.8 10.00 Overcast -- 36.0 25.0 64% 31 NA 30.34 1027.7
11:52 pm CDT 5.8 10.00 Overcast -- 36.0 25.0 64% 31 NA 30.37 1028.7
10:52 pm CDT NE 8.1 10.00 Overcast -- 37.0 25.0 62% 31 NA 30.38 1029.0
9:52 pm CDT N 10.4 G 18.4 10.00 Mostly Cloudy -- 37.0 24.1 59% 30 NA 30.38 1029.1
8:52 pm CDT NE 10.4 10.00 Overcast -- 39.0 25.0 57% 32 NA 30.38 1029.0

Regional Weather Observation


Great Bend, Great Bend Municipal Airport, KS (KGBD)

Fair
37.0 F

Salina, Salina Municipal Airport, KS (KSLN)

Overcast
39.0 F

Newton, Newton City/County Airport, KS (KEWK)

Overcast
38.0 F

Russell, Russell Municipal Airport, KS (KRSL)

Fair
34.0 F

Pratt Municipal, KS (KPTT)

Fair
38.0 F

Wichita - Wichita Dwight D. Eisenhower National Airport, KS (KICT)

Overcast
41.0 F